Погода в Тайшете

Погода в Тайшете : погода сейчас, прогноз погоды и архив. Всё, что Вы хотите узнать о погоде в Тайшете!

Хотите узнать прогноз погоды в Тайшете? Тогда Вам сюда: Погода в Тайшете

Поиск расширенной информации на нашем сайте:

Другие новости

Новости СМИ2

Главная страница сайта

Новости сайта

03.07.2017

Напоминаем, что на нашем специализированном сайте Метеоцентр.Азия вы можете получить высокодетализированные автоматические прогнозы погоды по пунктам России, СНГ и мира в авиационном формате (включающие направление и скорость ветра, видимость, явления погоды, количество и форму облачности, нижнюю и верхнюю границу облачности).

Рекомендуем: Дренажная помпа кондиционера.

Погода в Тайшете - сегодня

Время (UTC), дата Ветер
(°,м/с) 
Видим.   Явления Облачность Т
(°С)
Тd
(°С)
f(%) Тe
(°С)
Pmin
(гПа)
dP
(гПа)
Po
(мм)
O2
(г/м3)
Тmin Tmax R s Состояние
почвы
21 21.11.17 250 (З) н/о  ливневой снег  10/10 600 м кучево-дожд. 
[Cb cap]
-5.3 -5.3 100 -7  1027.2  -0.6  741  305           
00 22.11.17 250 (З) н/о  слаб. ливневой снег  10/10 600 м кучево-дожд. 
[Cb cap]
-5 -5 100 -7  1025.5  -1.6  740  304  -8.3    15  равномерный
сухой снег
100% 
03 22.11.17 170 (Ю) 4000 м  ливневой снег  10/10 600 м кучево-дожд. 
[Cb cap]
-4.6 -4.6 100 -4  1022.7  -2.6  738  303           
06 22.11.17 250 (З) 4000 м  ливневой снег  10/10 600 м кучево-дожд. 
[Cb cap]
-3.8 -3.8 100 -6  1021.5  -1  737  302           
09 22.11.17 280 (З) 10 км  слаб. ливневой снег  10/10 600 м кучево-дожд. 
[Cb cap]
-3.9 -3.9 100 -6  1023.6  739  302           
12 22.11.17 290 (З) н/о  {ливн. осадки}  10/8 600 м кучево-дожд., средняя, верхняя 
[Cb cap|Ac trans|Ci fib]
-4.8 -4.8 100 -6  1027.4  3.5  741  304    -3.6     
15 22.11.17 290 (З) н/о    10/10 600 м кучево-дожд. 
[Cb cap]
-5.5 -6 96 -8  1029.5  1.9  743  306           
18 22.11.17 280 (З) н/о  слаб. ливневой снег  10/10 600 м кучево-дожд. 
[Cb cap]
-6.3 -6.3 100 -6  1030.1  0.4  743  307           
21 22.11.17 060 (СВ) н/о  слаб. ливневой снег  10/10 600 м кучево-дожд. 
[Cb cap]
-10.5 -10.5 100 -12  1031.4  0.6  743  313           
00 23.11.17 040 (СВ) н/о  слаб. ливневой снег  10/10 600 м кучево-дожд. 
[Cb cap]
-12.6 -12.7 99 -13  1031.8  743  315  -12.6    18  равномерный
сухой снег
100% 
03 23.11.17 070 (В) 20000 м  слаб. ливневой снег  10/6 600 м кучево-дожд., средняя, верхняя 
[Cb cap|Ac trans|Ci fib]
-13.4 -13.7 98 -13  1032.1  0.2  744  316  -13.6         
06 23.11.17 050 (СВ) 20000 м  {ливн. осадки}  10/6 600 м кучево-дожд., средняя, верхняя 
[Cb cap|Ac lent|Ci fib]
-12.3 -13.2 93 -12  1031.1  -0.8  743  315           
09 23.11.17 тихо ()   20000 м    10/8 600 м кучево-дожд., средняя, верхняя 
[Cb cap|Ac lent|Ci fib]
-13.6 -14 97 -14  1030.9  -0.4  743  316           
12 23.11.17 060 (СВ) н/о  слаб. ливневой снег  10/10 600 м кучево-дожд. 
[Cb cap]
-12.6 -12.9 98 -15  1029.6  -1.1  742  315    -11.3  0.4     
15 23.11.17 060 (СВ) н/о  слаб. ливневой снег  10/10 600 м кучево-дожд. 
[Cb cap]
-12.6 -12.7 99 -15  1028  -1.5  741  314           
18 23.11.17 060 (СВ) н/о  слаб. ливневой снег  10/10 600 м кучево-дожд. 
[Cb cap]
-13.7 -14.1 97 -17  1027.4  -0.8  740  315           
21 23.11.17 060 (СВ) н/о  слаб. ливневой снег  10/10 600 м кучево-дожд. 
[Cb cap]
-15.4 -15.9 96 -18  1027.5  -0.1  740  317           
00 24.11.17 060 (СВ) н/о  слаб. ливневой снег  10/10 600 м кучево-дожд. 
[Cb cap]
-16.1 -16.7 95 -18  1028.1  0.4  740  318  -16.1    18  равномерный
сухой снег
100% 
03 24.11.17 050 (СВ) 10 км  слаб. ливневой снег  10/8 600 м кучево-дожд., средняя, верхняя 
[Cb cap|Ac trans|Cc]
-16 -16.7 94 -18  1028.4  0.4  741  318  -16.4         
06 24.11.17 020 (С) 10 км  слаб. ливневой снег  10/10 600 м кучево-дожд. 
[Cb cap]
-14.8 -15.6 94 -17  1027.9  -0.3  740  317           
09 24.11.17 020 (С) 20000 м  слаб. ливневой снег  10/10 600 м кучево-дожд. 
[Cb cap]
-15.1 -15.7 95 -15  1028.7  0.7  741  317           
12 24.11.17 040 (СВ) н/о  слаб. ливневой снег  10/10 600 м кучево-дожд. 
[Cb cap]
-15.3 -15.8 96 -18  1028.8  741  318    -14.7     
15 24.11.17 050 (СВ) н/о  слаб. ливневой снег  10/10 600 м кучево-дожд. 
[Cb cap]
-15.9 -16.4 96 -18  1028.4  -0.4  741  318           
18 24.11.17 060 (СВ) н/о  слаб. ливневой снег  10/10 600 м кучево-дожд. 
[Cb cap]
-16.2 -16.7 96 -19  1028.2  -0.3  740  319           
21 24.11.17 080 (В) н/о  слаб. ливневой снег  10/10 600 м кучево-дожд. 
[Cb cap]
-16 -16.5 96 -18  1027.7  -0.4  740  318           
Время (UTC), дата Ветер
(°,м/с) 
Видим.   Явления Облачность Т
(°С)
Тd
(°С)
f(%) Тe
(°С)
Pmin
(гПа)
dP
(гПа)
Po
(мм)
O2
(г/м3)
Тmin Tmax R s Состояние
почвы

Для получения пояснительной информации подведите курсор к названию столбца.

ПОГОДА в Тайшете - архив

Всё, что Вы хотите узнать о погоде в Тайшете - удобно и подробно!

Выберите нужную дату (начиная с 1 января 2015* года) и нажмите кнопку "Найти".
Будут отображены архивные сводки погоды по пункту Тайшет, начиная с указанной даты.


Отображать данные в формате CSV (для использования в таблицах Excel)


Внимание! Наш архив погоды предназначен исключительно для личного некоммерческого использования в познавательных целях. Если Вам необходимы официальные справки о состоянии погоды (для производственных, юридических, коммерческих и т.п. целей), обращайтесь в органы Росгидромета.

*Примечание: данная дата относится к архиву по метеостанциям СССР (Россия, СНГ, Балтия).
Архив по метеостанциям Зарубежной Европы и Азии (кроме Китая) хранится 10 дней, по другим регионам земного шара (Китай, Африка, Америка, Австралия, Океания) - 1 день.

Тайшет - район местоположения метеостанции


Название, широта, долгота, высота метеостанции:
Тайшет 55.9°ш. 98°д. 307 м над ур. моря [Российская Федерация]

Дополнительная информация

В oтличие oт бoльшинства пoгoдных сайтoв мы публикуем пoдрoбную метеoинфoрмацию в детальнoм прoфессиoнальнoм фoрмате.

Характеристики температуры и влажнoсти вoздуха измеряются на высoте 2 м в тени вдали oт зданий и деревьев.
Скoрoсть ветра измеряется на высoте 10 м (на урoвне рoста челoвека скoрoсть ветра ниже в 1.5-2 раза). Если метеoстанция нахoдится в гoрoде или в лесу, тo скoрoсть ветра занижена на 2-4 м/с пo сравнению с oткрытым местoм. Скoрoсть ветра над акватoриями крупных рек и oзёр, а также на вершинах хoлмoв на 2-5 м/с выше, чем в oбычных услoвиях.
Атмoсфернoе давление в разных тoчках местнoсти мoжет значительнo oтличаться oт давления на метеoстанции, в зависимoсти oт услoвий рельефа (при пoдъёме на 10 м давление пoнижается примернo на 1 мм рт.ст.).